Location: West Sayville
(40.7279°N, 73.0976°W)
Time: 08:16:10
(UTC+00:00)

NOSS 3-3 (C) - Pass Details

Date: 29 October 2020
Orbit: 827 x 1385 km, 63.5° (Epoch: 29 November)

Event Time Altitude Azimuth Distance (km) Brightness Sun altitude
Rises 23:24:25 0° 221° (SW) 3,392 7.5 -18.1°
Reaches altitude 10° 23:26:47 10° 224° (SW) 2,495 6.8 -18.5°
Maximum altitude 23:32:30 68° 307° (NW) 993 4.2 -19.6°
Enters shadow 23:38:42 11° 30° (NNE) 2,705 6.0 -20.8°
